period_start,C,m1,H,J0,J1,J2,J3,J4,J5,JA,JB,JC,JD,JJ,JK,JN,#
2013-07-06 00:00:20,0.00,1.15,0.00,26.08,30.50,32.86,5.89,29.00,1002.26,2046.99,3122.84,2950.12,3208.99,349.86,316.00,26.07,0000 0000 0000 0000 000000
2013-07-06 00:01:20,-0.01,1.15,0.00,26.08,30.50,32.85,5.85,29.17,1002.24,2046.99,3122.90,2950.17,3208.99,350.04,316.08,26.07,0000 0000 0000 0000 000000
2013-07-06 00:02:20,-0.01,1.15,0.00,26.07,30.50,32.85,5.79,29.04,1002.28,2046.99,3122.94,2950.22,3208.99,349.77,315.94,26.08,0000 0000 0000 0000 000000
2013-07-06 00:03:20,-0.02,1.15,0.00,26.07,30.50,32.84,5.92,29.29,1002.30,2046.99,3122.95,2950.27,3208.99,350.48,316.36,26.08,0000 0000 0000 0000 000000
2013-07-06 00:04:20,-0.00,1.15,0.00,26.08,30.50,32.84,5.79,28.75,1002.36,2046.99,3122.95,2950.35,3208.99,350.07,316.44,26.09,0000 0000 0000 0000 000000
2013-07-06 00:05:21,-0.03,1.15,0.00,26.07,30.50,32.84,5.76,29.04,1002.31,2046.99,3122.98,2950.59,3209.00,349.35,315.54,26.10,0000 0000 0000 0000 000000
2013-07-06 00:06:21,-0.04,1.15,0.00,26.08,30.48,32.85,5.87,29.17,1002.26,2046.99,3122.97,2950.59,3209.00,349.75,315.88,26.10,0000 0000 0000 0000 000000
2013-07-06 00:07:21,-0.01,1.15,0.00,26.08,30.47,32.84,6.02,29.29,1002.15,2046.99,3122.98,2950.69,3209.02,350.46,316.49,26.11,0000 0000 0000 0000 000000
2013-07-06 00:08:22,-0.01,1.15,0.00,26.07,30.47,32.83,5.86,29.21,1002.20,2046.99,3122.97,2950.82,3209.02,349.59,315.72,26.11,0000 0000 0000 0000 000000
2013-07-06 00:09:22,-0.03,1.15,0.00,26.07,30.47,32.83,5.94,29.21,1002.27,2046.99,3122.98,2950.88,3209.02,350.46,316.06,26.12,0000 0000 0000 0000 000000
2013-07-06 00:10:22,-0.01,1.15,0.00,26.06,30.47,32.83,5.85,29.04,1002.30,2046.99,3122.99,2950.88,3209.03,350.34,316.32,26.12,0000 0000 0000 0000 000000
2013-07-06 00:11:22,-0.01,1.15,0.00,26.06,30.47,32.83,5.90,29.33,1002.30,2046.99,3122.99,2950.91,3209.03,350.32,315.71,26.13,0000 0000 0000 0000 000000
2013-07-06 00:12:22,-0.00,1.15,0.00,26.05,30.45,32.82,5.90,29.29,1002.34,2046.99,3122.97,2950.86,3209.08,350.10,315.90,26.14,0000 0000 0000 0000 000000
2013-07-06 00:13:23,0.01,1.15,0.00,26.05,30.45,32.80,5.79,29.38,1002.36,2046.99,3122.98,2950.88,3209.08,349.50,316.04,26.14,0000 0000 0000 0000 000000
2013-07-06 00:14:23,-0.02,1.15,0.00,26.06,30.45,32.80,5.82,29.50,1002.28,2046.99,3122.99,2950.93,3209.14,349.56,315.95,26.15,0000 0000 0000 0000 000000
2013-07-06 00:15:23,-0.01,1.15,0.00,26.06,30.45,32.79,5.92,29.25,1002.30,2046.99,3122.99,2950.96,3209.16,350.37,316.18,26.15,0000 0000 0000 0000 000000
2013-07-06 00:16:23,-0.01,1.15,0.00,26.06,30.45,32.80,5.81,29.25,1002.31,2046.99,3122.98,2950.96,3209.18,350.69,316.77,26.16,0000 0000 0000 0000 000000
2013-07-06 00:17:23,-0.00,1.15,0.00,26.06,30.44,32.78,5.88,29.38,1002.33,2046.99,3122.99,2950.98,3209.18,350.09,316.23,26.17,0000 0000 0000 0000 000000
2013-07-06 00:18:24,0.00,1.15,0.00,26.05,30.43,32.79,5.85,29.25,1002.29,2046.99,3122.99,2950.96,3209.20,349.71,315.88,26.17,0000 0000 0000 0000 000000
2013-07-06 00:19:24,0.00,1.15,0.00,26.04,30.43,32.79,5.97,29.42,1002.34,2046.99,3122.99,2950.95,3209.29,350.63,316.57,26.18,0000 0000 0000 0000 000000
2013-07-06 00:20:24,0.00,1.15,0.00,26.05,30.42,32.78,5.76,29.38,1002.29,2046.99,3122.99,2950.96,3209.36,350.03,316.06,26.18,0000 0000 0000 0000 000000
2013-07-06 00:21:24,-0.02,1.15,0.00,26.05,30.42,32.78,5.69,29.38,1002.20,2046.99,3122.99,2950.98,3209.48,349.57,315.91,26.19,0000 0000 0000 0000 000000
2013-07-06 00:22:25,-0.01,1.15,0.00,26.05,30.42,32.77,5.78,29.17,1002.21,2046.99,3122.99,2950.99,3209.52,349.92,316.19,26.20,0000 0000 0000 0000 000000
2013-07-06 00:23:25,-0.01,1.15,0.00,26.05,30.42,32.77,5.80,29.29,1002.11,2046.99,3122.99,2950.99,3209.67,349.26,315.42,26.20,0000 0000 0000 0000 000000
2013-07-06 00:24:25,-0.01,1.15,0.00,26.04,30.41,32.75,5.70,29.21,1002.04,2046.99,3122.99,2950.99,3209.73,349.83,316.06,26.21,0000 0000 0000 0000 000000
2013-07-06 00:25:25,-0.01,1.15,0.00,26.04,30.40,32.77,5.72,29.21,1002.00,2046.99,3122.99,2950.99,3209.83,350.48,316.84,26.21,0000 0000 0000 0000 000000
2013-07-06 00:26:26,-0.01,1.15,0.00,26.04,30.40,32.76,5.77,29.04,1002.00,2046.99,3122.99,2950.99,3209.91,350.50,316.51,26.22,0000 0000 0000 0000 000000
2013-07-06 00:27:26,-0.00,1.15,0.00,26.03,30.40,32.76,5.79,29.08,1002.00,2047.00,3122.99,2950.99,3209.89,350.15,316.21,26.22,0000 0000 0000 0000 000000
2013-07-06 00:28:26,0.00,1.15,0.00,26.03,30.40,32.75,5.78,29.33,1002.00,2047.01,3122.99,2950.99,3209.90,350.28,316.32,26.23,0000 0000 0000 0000 000000
2013-07-06 00:29:26,0.00,1.15,0.00,26.03,30.40,32.74,5.94,29.25,1002.02,2047.02,3123.00,2950.99,3209.93,351.28,317.23,26.24,0000 0000 0000 0000 000000
2013-07-06 00:30:27,0.00,1.15,0.00,26.02,30.40,32.74,5.78,29.25,1002.03,2047.00,3123.00,2950.99,3209.96,348.85,315.06,26.24,0000 0000 0000 0000 000000
2013-07-06 00:31:27,-0.01,1.15,0.00,26.02,30.39,32.74,5.99,29.46,1002.10,2047.01,3123.00,2950.99,3209.96,350.29,316.38,26.25,0000 0000 0000 0000 000000
2013-07-06 00:32:27,0.01,1.15,0.00,26.02,30.38,32.74,5.84,29.21,1002.16,2047.03,3123.00,2950.99,3209.94,350.17,316.67,26.25,0000 0000 0000 0000 000000
2013-07-06 00:33:27,0.01,1.15,0.00,26.02,30.37,32.74,5.83,29.33,1002.15,2047.04,3123.01,2950.99,3209.96,350.19,316.24,26.26,0000 0000 0000 0000 000000
2013-07-06 00:34:28,0.00,1.15,0.00,26.02,30.37,32.72,5.74,29.33,1002.14,2047.05,3123.01,2950.99,3209.95,349.69,316.22,26.27,0000 0000 0000 0000 000000
2013-07-06 00:35:28,0.00,1.15,0.00,26.02,30.37,32.73,5.88,29.25,1002.07,2047.04,3123.00,2950.99,3209.98,350.38,316.46,26.27,0000 0000 0000 0000 000000
2013-07-06 00:36:28,0.00,1.15,0.00,26.02,30.37,32.73,5.95,29.33,1002.14,2047.05,3123.00,2950.99,3209.97,349.39,315.63,26.28,0000 0000 0000 0000 000000
2013-07-06 00:37:29,0.01,1.15,0.00,26.02,30.37,32.72,5.83,29.29,1002.15,2047.08,3123.00,2951.00,3209.98,350.07,316.17,26.28,0000 0000 0000 0000 000000
2013-07-06 00:38:29,0.04,1.15,0.00,26.02,30.37,32.72,5.91,29.42,1002.08,2047.25,3123.01,2951.03,3209.99,350.62,316.68,26.29,0000 0000 0000 0000 000000
2013-07-06 00:39:29,0.11,1.15,0.00,26.02,30.35,32.71,5.92,29.33,1002.10,2047.24,3123.00,2951.01,3209.99,350.89,317.07,26.29,0000 0000 0000 0000 000000
2013-07-06 00:40:29,0.00,1.15,0.00,26.03,30.35,32.71,5.90,29.33,1002.10,2047.20,3123.01,2951.00,3209.98,350.08,316.19,26.30,0000 0000 0000 0000 000000
2013-07-06 00:41:29,-0.06,1.15,0.00,26.03,30.35,32.70,5.81,29.17,1002.09,2047.16,3123.00,2951.01,3209.99,349.66,315.80,26.31,0000 0000 0000 0000 000000
2013-07-06 00:42:29,-0.01,1.15,0.00,26.03,30.35,32.70,5.88,29.08,1002.06,2047.20,3123.00,2951.02,3209.99,349.69,316.21,26.31,0000 0000 0000 0000 000000
2013-07-06 00:43:30,0.02,1.15,0.00,26.03,30.35,32.70,5.88,29.29,1002.03,2047.22,3123.00,2951.03,3209.99,349.52,316.16,26.32,0000 0000 0000 0000 000000
2013-07-06 00:44:30,0.03,1.15,0.00,26.03,30.35,32.70,5.86,29.17,1002.00,2047.35,3123.01,2951.06,3209.99,350.18,316.32,26.32,0000 0000 0000 0000 000000
2013-07-06 00:45:30,0.09,1.15,0.00,26.04,30.35,32.69,5.94,29.08,1001.99,2047.43,3123.00,2951.06,3209.99,350.27,316.54,26.33,0000 0000 0000 0000 000000
2013-07-06 00:46:30,0.07,1.15,0.00,26.04,30.34,32.69,5.84,29.00,1001.98,2047.50,3123.04,2951.09,3209.99,349.39,315.71,26.34,0000 0000 0000 0000 000000
2013-07-06 00:47:31,0.01,1.15,0.00,26.04,30.33,32.68,5.71,29.17,1001.97,2047.60,3123.05,2951.05,3209.99,349.27,315.40,26.34,0000 0000 0000 0000 000000
2013-07-06 00:48:31,0.13,1.15,0.00,26.05,30.33,32.68,5.78,29.17,1001.98,2047.61,3123.04,2951.05,3209.99,350.62,316.61,26.35,0000 0000 0000 0000 000000
2013-07-06 00:49:31,0.02,1.15,0.00,26.06,30.32,32.68,5.91,29.17,1001.98,2047.62,3123.05,2951.07,3209.99,350.63,316.60,26.35,0000 0000 0000 0000 000000
2013-07-06 00:50:31,-0.01,1.15,0.00,26.06,30.32,32.66,5.65,29.08,1001.97,2047.71,3123.01,2951.05,3209.99,349.24,315.67,26.36,0000 0000 0000 0000 000000
2013-07-06 00:51:31,0.07,1.15,0.00,26.07,30.32,32.65,5.83,29.21,1001.97,2047.73,3123.03,2951.07,3209.99,349.89,315.92,26.37,0000 0000 0000 0000 000000
2013-07-06 00:52:32,0.01,1.15,0.00,26.07,30.32,32.65,5.72,29.08,1001.97,2047.80,3123.05,2951.15,3210.00,349.54,315.19,26.37,0000 0000 0000 0000 000000
2013-07-06 00:53:32,0.02,1.15,0.00,26.07,30.32,32.65,5.73,29.21,1001.97,2047.84,3123.10,2951.26,3210.00,349.19,315.48,26.38,0000 0000 0000 0000 000000
2013-07-06 00:54:32,0.01,1.15,0.00,26.07,30.32,32.66,5.93,29.13,1001.97,2047.91,3123.20,2951.38,3210.02,350.41,316.62,26.38,0000 0000 0000 0000 000000
2013-07-06 00:55:32,0.02,1.15,0.00,26.08,30.32,32.65,5.84,29.21,1001.97,2047.92,3123.17,2951.37,3210.02,350.14,316.14,26.39,0000 0000 0000 0000 000000
2013-07-06 00:56:33,-0.01,1.15,0.00,26.09,30.31,32.65,5.77,28.92,1001.97,2047.91,3123.11,2951.34,3210.04,349.16,315.17,26.39,0000 0000 0000 0000 000000
2013-07-06 00:57:33,-0.01,1.15,0.00,26.09,30.30,32.63,5.89,28.75,1001.97,2047.89,3123.25,2951.45,3210.02,350.85,316.76,26.40,0000 0000 0000 0000 000000
2013-07-06 00:58:33,-0.04,1.15,0.00,26.09,30.30,32.63,5.77,29.04,1001.97,2047.90,3123.22,2951.46,3210.00,349.69,315.99,26.41,0000 0000 0000 0000 000000
2013-07-06 00:59:33,0.02,1.15,0.00,26.10,30.30,32.62,5.92,29.29,1001.97,2047.92,3123.17,2951.45,3210.00,349.78,315.79,26.41,0000 0000 0000 0000 000000
2013-07-06 01:00:34,0.01,1.15,0.00,26.12,30.30,32.63,5.87,29.21,1001.97,2047.95,3123.21,2951.58,3210.01,349.96,316.00,26.42,0000 0000 0000 0000 000000
2013-07-06 01:01:34,-0.01,1.15,0.00,26.11,30.30,32.62,5.77,29.29,1001.97,2047.95,3123.24,2951.49,3210.02,349.13,315.56,26.42,0000 0000 0000 0000 000000
2013-07-06 01:02:34,0.02,1.15,0.00,26.11,30.30,32.61,5.81,28.96,1001.97,2047.95,3123.18,2951.44,3210.05,349.47,315.50,26.43,0000 0000 0000 0000 000000
2013-07-06 01:03:34,0.01,1.15,0.00,26.12,30.30,32.62,5.94,29.38,1001.97,2047.95,3123.29,2951.55,3210.07,350.30,316.20,26.44,0000 0000 0000 0000 000000
2013-07-06 01:04:35,-0.03,1.15,0.00,26.11,30.30,32.62,5.98,29.13,1001.97,2047.96,3123.27,2951.59,3210.04,349.89,315.95,26.44,0000 0000 0000 0000 000000
2013-07-06 01:05:35,-0.01,1.15,0.00,26.11,30.30,32.61,6.07,29.33,1001.97,2047.97,3123.21,2951.59,3210.03,351.29,317.40,26.45,0000 0000 0000 0000 000000
2013-07-06 01:06:35,0.02,1.15,0.00,26.12,30.30,32.59,5.84,29.21,1001.97,2047.96,3123.17,2951.59,3210.03,349.94,316.21,26.45,0000 0000 0000 0000 000000
2013-07-06 01:07:35,0.01,1.15,0.00,26.14,30.30,32.60,5.71,29.13,1001.97,2047.98,3123.20,2951.61,3210.04,349.53,315.39,26.46,0000 0000 0000 0000 000000
2013-07-06 01:08:36,-0.01,1.15,0.00,26.15,30.29,32.60,5.74,29.08,1001.97,2047.98,3123.33,2951.65,3210.06,350.36,316.26,26.46,0000 0000 0000 0000 000000
2013-07-06 01:09:36,-0.03,1.15,0.00,26.15,30.29,32.60,5.96,29.25,1001.97,2047.96,3123.33,2951.68,3210.04,350.33,316.24,26.47,0000 0000 0000 0000 000000
2013-07-06 01:10:36,-0.02,1.15,0.00,26.15,30.29,32.59,5.94,29.33,1001.97,2047.96,3123.27,2951.71,3210.07,350.01,315.95,26.48,0000 0000 0000 0000 000000
2013-07-06 01:11:36,0.00,1.15,0.00,26.14,30.28,32.59,5.98,29.29,1001.97,2047.98,3123.38,2951.77,3210.13,350.27,316.20,26.48,0000 0000 0000 0000 000000
2013-07-06 01:12:37,-0.01,1.15,0.00,26.15,30.28,32.60,5.94,28.96,1001.97,2047.97,3123.32,2951.79,3210.07,350.39,316.29,26.49,0000 0000 0000 0000 000000
2013-07-06 01:13:37,0.00,1.15,0.00,26.16,30.28,32.61,5.94,29.33,1001.97,2047.97,3123.30,2951.72,3210.04,349.98,315.91,26.49,0000 0000 0000 0000 000000
2013-07-06 01:14:37,0.04,1.15,0.00,26.15,30.27,32.60,5.90,29.42,1001.97,2047.97,3123.25,2951.71,3210.03,350.23,315.96,26.50,0000 0000 0000 0000 000000
2013-07-06 01:15:37,0.00,1.15,0.00,26.15,30.27,32.60,5.98,29.21,1001.97,2047.98,3123.28,2951.75,3210.02,350.83,316.30,26.51,0000 0000 0000 0000 000000
2013-07-06 01:16:37,-0.01,1.15,0.00,26.15,30.27,32.60,5.83,29.42,1001.97,2047.98,3123.39,2951.78,3210.05,349.25,315.49,26.51,0000 0000 0000 0000 000000
2013-07-06 01:17:38,-0.04,1.15,0.00,26.15,30.27,32.59,5.86,29.29,1001.97,2047.99,3123.37,2951.72,3210.04,349.84,316.22,26.52,0000 0000 0000 0000 000000
2013-07-06 01:18:38,0.03,1.15,0.00,26.16,30.27,32.58,5.76,29.29,1001.97,2047.99,3123.27,2951.80,3210.05,349.59,315.69,26.52,0000 0000 0000 0000 000000
2013-07-06 01:19:38,0.00,1.15,0.00,26.17,30.27,32.59,5.90,29.38,1001.97,2047.99,3123.30,2951.74,3210.05,349.66,315.63,26.53,0000 0000 0000 0000 000000
2013-07-06 01:20:38,0.01,1.15,0.00,26.17,30.27,32.60,5.87,28.83,1001.97,2047.99,3123.56,2951.85,3210.06,350.78,316.62,26.53,0000 0000 0000 0000 000000
2013-07-06 01:21:38,-0.08,1.15,0.00,26.18,30.27,32.60,5.77,29.21,1001.97,2047.99,3123.76,2951.92,3210.20,349.80,315.73,26.54,0000 0000 0000 0000 000000
2013-07-06 01:22:38,-0.04,1.15,0.00,26.19,30.27,32.58,5.82,28.92,1001.97,2047.99,3123.85,2951.96,3210.33,350.50,316.34,26.55,0000 0000 0000 0000 000000
2013-07-06 01:23:38,-0.04,1.15,0.00,26.20,30.27,32.58,5.88,29.04,1001.97,2047.99,3123.84,2951.98,3210.40,350.31,316.33,26.55,0000 0000 0000 0000 000000
2013-07-06 01:24:39,-0.01,1.15,0.00,26.20,30.27,32.59,5.75,28.96,1001.97,2047.99,3123.85,2951.97,3210.36,349.61,315.53,26.56,0000 0000 0000 0000 000000
2013-07-06 01:25:39,0.00,1.15,0.00,26.22,30.27,32.57,5.90,29.04,1001.97,2047.99,3123.89,2951.98,3210.30,349.27,315.13,26.56,0000 0000 0000 0000 000000
2013-07-06 01:26:39,0.00,1.15,0.00,26.21,30.27,32.58,5.79,29.17,1001.97,2047.97,3123.89,2951.98,3210.28,349.60,315.94,26.57,0000 0000 0000 0000 000000
2013-07-06 01:27:39,-0.01,1.15,0.00,26.22,30.27,32.59,5.84,28.88,1001.97,2047.99,3123.92,2951.98,3210.22,349.65,315.55,26.58,0000 0000 0000 0000 000000
2013-07-06 01:28:39,0.01,1.15,0.00,26.21,30.27,32.59,5.71,28.88,1001.97,2047.99,3123.93,2951.95,3210.25,349.85,315.61,26.58,0000 0000 0000 0000 000000
2013-07-06 01:29:40,0.00,1.15,0.00,26.21,30.27,32.58,5.81,29.33,1001.97,2047.98,3123.84,2951.93,3210.26,349.40,315.07,26.59,0000 0000 0000 0000 000000
2013-07-06 01:30:40,0.01,1.15,0.00,26.22,30.27,32.59,5.95,29.33,1001.97,2047.99,3123.81,2951.94,3210.20,350.28,316.24,26.59,0000 0000 0000 0000 000000
2013-07-06 01:31:40,0.01,1.15,0.00,26.23,30.27,32.58,5.97,29.21,1001.97,2047.98,3123.89,2951.96,3210.19,350.28,316.10,26.60,0000 0000 0000 0000 000000
2013-07-06 01:32:40,-0.01,1.15,0.00,26.22,30.27,32.59,5.84,29.21,1001.97,2047.99,3123.90,2951.97,3210.23,349.73,315.96,26.61,0000 0000 0000 0000 000000
2013-07-06 01:33:41,0.00,1.15,0.00,26.22,30.27,32.59,5.83,29.21,1001.97,2047.99,3123.91,2951.97,3210.29,350.45,316.26,26.61,0000 0000 0000 0000 000000
2013-07-06 01:34:41,-0.01,1.15,0.00,26.23,30.27,32.59,5.87,29.04,1001.97,2047.98,3123.96,2951.99,3210.31,350.29,316.11,26.62,0000 0000 0000 0000 000000
2013-07-06 01:35:41,-0.03,1.15,0.00,26.25,30.27,32.58,5.76,29.21,1001.97,2047.99,3123.97,2951.97,3210.35,350.00,315.84,26.62,0000 0000 0000 0000 000000
2013-07-06 01:36:41,0.01,1.15,0.00,26.25,30.27,32.60,5.86,29.29,1001.97,2047.99,3123.95,2951.95,3210.24,349.61,315.48,26.63,0000 0000 0000 0000 000000
2013-07-06 01:37:42,0.03,1.15,0.00,26.25,30.27,32.59,5.91,29.17,1001.95,2047.99,3123.83,2951.94,3210.10,350.67,316.43,26.63,0000 0000 0000 0000 000000
2013-07-06 01:38:42,0.03,1.15,0.00,26.25,30.27,32.59,5.82,29.21,1001.97,2047.98,3123.74,2951.89,3210.05,350.02,315.85,26.64,0000 0000 0000 0000 000000
2013-07-06 01:39:42,0.03,1.15,0.00,26.25,30.27,32.59,5.75,29.29,1001.96,2047.98,3123.59,2951.87,3210.07,349.63,315.33,26.65,0000 0000 0000 0000 000000
2013-07-06 01:40:42,0.01,1.15,0.00,26.25,30.27,32.58,5.84,29.17,1001.97,2047.98,3123.27,2951.70,3210.04,350.05,315.88,26.65,0000 0000 0000 0000 000000
2013-07-06 01:41:42,0.09,1.15,0.00,26.26,30.27,32.59,5.81,29.13,1001.97,2047.98,3123.10,2951.45,3210.02,349.91,315.67,26.66,0000 0000 0000 0000 000000
2013-07-06 01:42:43,0.10,1.15,0.00,26.27,30.27,32.60,5.80,29.29,1001.97,2047.99,3123.00,2951.22,3210.00,349.36,314.90,26.66,0000 0000 0000 0000 000000
2013-07-06 01:43:43,0.07,1.15,0.00,26.28,30.27,32.59,5.89,29.29,1001.97,2047.98,3122.69,2951.08,3209.98,350.97,316.49,26.67,0000 0000 0000 0000 000000
2013-07-06 01:44:43,0.08,1.15,0.00,26.28,30.27,32.59,5.86,29.00,1001.97,2047.97,3122.32,2951.03,3209.93,350.74,316.46,26.68,0000 0000 0000 0000 000000
2013-07-06 01:45:43,0.07,1.15,0.00,26.27,30.27,32.60,5.80,28.67,1001.97,2047.98,3122.11,2951.01,3209.87,349.77,315.66,26.68,0000 0000 0000 0000 000000
2013-07-06 01:46:43,0.05,1.15,0.00,26.27,30.27,32.60,5.89,29.25,1001.97,2047.97,3122.04,2951.00,3209.82,350.50,316.26,26.69,0000 0000 0000 0000 000000
2013-07-06 01:47:44,0.00,1.15,0.00,26.29,30.27,32.60,5.90,29.33,1001.97,2047.99,3122.01,2951.00,3209.79,350.47,315.90,26.69,0000 0000 0000 0000 000000
2013-07-06 01:48:44,0.01,1.15,0.00,26.29,30.27,32.59,5.76,29.38,1001.97,2047.99,3122.00,2951.00,3209.59,350.38,316.13,26.70,0000 0000 0000 0000 000000
2013-07-06 01:49:44,0.03,1.15,0.00,26.30,30.27,32.59,5.94,29.33,1001.94,2047.99,3122.00,2951.00,3209.49,351.26,317.02,26.70,0000 0000 0000 0000 000000
2013-07-06 01:50:44,0.01,1.15,0.00,26.30,30.27,32.59,5.84,29.21,1001.94,2047.99,3122.00,2951.00,3209.49,350.25,315.99,26.71,0000 0000 0000 0000 000000
2013-07-06 01:51:45,0.00,1.15,0.00,26.32,30.27,32.58,5.77,29.25,1001.91,2047.98,3122.00,2951.00,3209.53,349.63,315.16,26.72,0000 0000 0000 0000 000000
2013-07-06 01:52:45,-0.01,1.15,0.00,26.31,30.27,32.59,5.73,29.25,1001.90,2047.99,3122.00,2951.00,3209.33,349.09,315.54,26.72,0000 0000 0000 0000 000000
2013-07-06 01:53:45,0.03,1.15,0.00,26.32,30.27,32.59,5.90,29.21,1001.90,2047.98,3121.99,2951.00,3209.21,349.87,315.55,26.73,0000 0000 0000 0000 000000
2013-07-06 01:54:45,0.02,1.15,0.00,26.32,30.27,32.60,5.86,28.88,1001.91,2047.98,3121.99,2951.00,3209.27,349.32,315.48,26.73,0000 0000 0000 0000 000000
2013-07-06 01:55:45,-0.02,1.15,0.00,26.32,30.28,32.60,5.73,29.25,1001.93,2047.97,3121.99,2951.00,3209.18,349.66,315.48,26.74,0000 0000 0000 0000 000000
2013-07-06 01:56:46,0.02,1.15,0.00,26.33,30.29,32.61,5.82,29.04,1001.95,2047.97,3121.99,2950.99,3209.13,350.01,315.75,26.75,0000 0000 0000 0000 000000
2013-07-06 01:57:46,0.00,1.15,0.00,26.34,30.29,32.60,5.67,28.88,1001.96,2047.98,3121.97,2950.98,3209.16,350.15,315.87,26.75,0000 0000 0000 0000 000000
2013-07-06 01:58:46,0.00,1.15,0.00,26.33,30.30,32.60,5.93,28.83,1001.92,2047.97,3121.99,2950.99,3209.13,350.78,316.44,26.76,0000 0000 0000 0000 000000
2013-07-06 01:59:46,-0.01,1.15,0.00,26.33,30.30,32.61,5.85,29.25,1001.81,2047.90,3121.98,2950.98,3209.10,350.80,316.42,26.76,0000 0000 0000 0000 000000
2013-07-06 02:00:47,-0.04,1.15,0.00,26.34,30.30,32.61,5.88,29.25,1001.85,2047.90,3121.94,2950.93,3209.04,350.27,316.10,26.77,0000 0000 0000 0000 000000
2013-07-06 02:01:47,0.02,1.15,0.00,26.34,30.30,32.60,5.85,29.17,1001.78,2047.91,3121.92,2950.91,3209.02,350.20,316.09,26.77,0000 0000 0000 0000 000000
2013-07-06 02:02:47,0.00,1.15,0.00,26.35,30.30,32.61,5.96,29.29,1001.70,2047.94,3121.92,2950.94,3209.02,350.32,315.55,26.78,0000 0000 0000 0000 000000
2013-07-06 02:03:47,0.01,1.15,0.00,26.35,30.30,32.60,5.88,29.33,1001.61,2047.89,3121.89,2950.93,3209.01,350.08,315.80,26.79,0000 0000 0000 0000 000000
2013-07-06 02:04:48,-0.02,1.15,0.00,26.35,30.30,32.61,5.90,29.29,1001.59,2047.86,3121.80,2950.95,3209.00,350.00,315.29,26.79,0000 0000 0000 0000 000000
2013-07-06 02:05:48,0.00,1.15,0.00,26.36,30.30,32.62,6.05,29.42,1001.54,2047.87,3121.77,2950.94,3209.01,351.38,316.72,26.80,0000 0000 0000 0000 000000
2013-07-06 02:06:48,0.01,1.15,0.00,26.37,30.30,32.61,5.77,29.25,1001.55,2047.91,3121.66,2950.95,3209.01,349.65,314.81,26.80,0000 0000 0000 0000 000000
2013-07-06 02:07:48,0.05,1.15,0.00,26.38,30.30,32.62,5.89,29.25,1001.55,2047.93,3121.80,2950.95,3209.04,350.67,316.17,26.81,0000 0000 0000 0000 000000
2013-07-06 02:08:48,-0.01,1.15,0.00,26.39,30.30,32.63,5.86,29.42,1001.51,2047.92,3121.61,2950.85,3209.01,350.60,316.28,26.82,0000 0000 0000 0000 000000
2013-07-06 02:09:49,0.04,1.15,0.00,26.39,30.30,32.62,5.75,29.13,1001.51,2047.80,3121.30,2950.58,3209.00,349.75,315.01,26.82,0000 0000 0000 0000 000000
2013-07-06 02:10:49,0.01,1.15,0.00,26.40,30.30,32.62,5.77,29.29,1001.49,2047.79,3121.16,2950.38,3209.00,350.19,315.69,26.83,0000 0000 0000 0000 000000
2013-07-06 02:11:49,0.05,1.15,0.00,26.40,30.30,32.62,5.82,29.17,1001.49,2047.76,3121.20,2950.38,3209.00,349.54,315.49,26.83,0000 0000 0000 0000 000000
2013-07-06 02:12:49,-0.01,1.15,0.00,26.42,30.30,32.63,5.90,29.00,1001.50,2047.79,3121.13,2950.31,3209.00,349.68,315.41,26.84,0000 0000 0000 0000 000000
2013-07-06 02:13:49,0.06,1.15,0.00,26.43,30.31,32.63,5.83,29.29,1001.49,2047.77,3121.09,2950.19,3209.00,349.30,314.86,26.85,0000 0000 0000 0000 000000
2013-07-06 02:14:50,0.00,1.15,0.00,26.43,30.32,32.61,5.77,29.29,1001.52,2047.85,3121.04,2950.16,3209.00,349.55,315.28,26.85,0000 0000 0000 0000 000000
2013-07-06 02:15:50,0.09,1.16,0.00,26.44,30.32,32.63,5.78,29.13,1001.54,2047.82,3121.02,2950.14,3209.00,349.74,314.93,26.86,0000 0000 0000 0000 000000
2013-07-06 02:16:50,-0.03,1.16,0.00,26.44,30.32,32.63,5.75,29.29,1001.50,2047.82,3121.00,2950.09,3209.00,349.88,315.39,26.86,0000 0000 0000 0000 000000
2013-07-06 02:17:50,0.04,1.16,0.00,26.45,30.32,32.63,5.73,29.25,1001.50,2047.83,3121.00,2950.09,3209.00,348.89,314.61,26.87,0000 0000 0000 0000 000000
2013-07-06 02:18:50,-0.00,1.16,0.00,26.45,30.32,32.63,5.89,29.04,1001.50,2047.82,3121.00,2950.07,3208.99,349.80,315.38,26.87,0000 0000 0000 0000 000000
2013-07-06 02:19:50,-0.01,1.16,0.00,26.46,30.32,32.63,5.74,29.17,1001.52,2047.86,3121.00,2950.06,3208.98,349.20,314.75,26.88,0000 0000 0000 0000 000000
2013-07-06 02:20:51,0.02,1.16,0.00,26.47,30.32,32.63,5.79,29.04,1001.50,2047.83,3121.00,2950.03,3208.96,349.38,314.90,26.89,0000 0000 0000 0000 000000
2013-07-06 02:21:51,-0.01,1.16,0.00,26.47,30.32,32.63,5.83,29.13,1001.49,2047.77,3121.00,2950.01,3208.93,350.22,315.29,26.89,0000 0000 0000 0000 000000
2013-07-06 02:22:51,-0.05,1.16,0.00,26.47,30.32,32.63,5.75,29.00,1001.49,2047.77,3120.99,2950.00,3208.95,349.91,315.37,26.90,0000 0000 0000 0000 000000
2013-07-06 02:23:52,0.02,1.16,0.00,26.47,30.33,32.64,5.87,29.00,1001.49,2047.84,3120.99,2950.02,3208.95,349.94,315.40,26.90,0000 0000 0000 0000 000000
2013-07-06 02:24:52,0.05,1.16,0.00,26.48,30.33,32.64,5.64,29.13,1001.49,2047.85,3120.98,2950.02,3208.95,348.86,314.41,26.91,0000 0000 0000 0000 000000
2013-07-06 02:25:52,-0.00,1.16,0.00,26.49,30.34,32.64,5.79,29.33,1001.48,2047.84,3120.99,2950.00,3208.91,349.60,315.20,26.92,0000 0000 0000 0000 000000
2013-07-06 02:26:52,0.01,1.16,0.00,26.51,30.35,32.65,5.77,28.96,1001.48,2047.76,3120.99,2950.00,3208.81,349.85,315.43,26.92,0000 0000 0000 0000 000000
2013-07-06 02:27:52,-0.07,1.16,0.00,26.51,30.35,32.65,5.73,29.13,1001.49,2047.68,3120.97,2950.00,3208.68,349.65,315.10,26.93,0000 0000 0000 0000 000000
2013-07-06 02:28:53,-0.02,1.16,0.00,26.52,30.35,32.64,5.77,29.33,1001.50,2047.53,3120.88,2950.00,3208.53,349.59,315.19,26.93,0000 0000 0000 0000 000000
2013-07-06 02:29:53,-0.07,1.15,0.00,26.53,30.35,32.65,5.65,29.08,1001.48,2047.67,3120.84,2950.00,3208.55,349.48,314.78,26.94,0000 0000 0000 0000 000000
2013-07-06 02:30:53,0.10,1.16,0.00,26.54,30.35,32.65,5.75,29.38,1001.49,2047.70,3120.90,2950.00,3208.64,349.51,315.15,26.94,0000 0000 0000 0000 000000
2013-07-06 02:31:54,-0.01,1.16,0.00,26.54,30.35,32.65,5.92,29.17,1001.48,2047.73,3120.92,2950.00,3208.57,351.11,316.38,26.95,0000 0000 0000 0000 000000
2013-07-06 02:32:54,0.04,1.16,0.00,26.54,30.35,32.65,5.86,29.25,1001.48,2047.78,3120.91,2950.00,3208.49,349.98,315.36,26.96,0000 0000 0000 0000 000000
2013-07-06 02:33:54,0.05,1.16,0.00,26.55,30.35,32.66,5.80,29.08,1001.49,2047.70,3120.92,2950.00,3208.49,350.11,315.47,26.96,0000 0000 0000 0000 000000
2013-07-06 02:34:54,-0.05,1.16,0.00,26.55,30.36,32.66,5.77,28.88,1001.51,2047.53,3120.89,2950.00,3208.38,349.94,315.31,26.97,0000 0000 0000 0000 000000
2013-07-06 02:35:54,-0.13,1.15,0.00,26.56,30.37,32.67,5.73,29.17,1001.49,2047.47,3120.89,2950.00,3208.26,350.10,315.22,26.97,0000 0000 0000 0000 000000